Theta_e
299 300 301 299 298 303 296 295 296 298 302 305 307 310 317 327 329 330 337 339 339 339 341 342 344 346 347 348 348 349 349 353
297 300 301 301 300 297 298 291 291 295 298 298 300 306 315 322 327 328 334 339 340 340 340 342 344 346 347 348 348 349 350 351
297 294 293 298 297 297 299 297 294 293 295 299 302 310 310 311 320 330 334 335 340 342 342 343 343 344 345 347 348 348 349 352
292 296 297 297 294 294 297 294 295 299 293 302 307 310 308 307 311 316 325 331 337 340 340 341 342 342 343 345 345 346 350 352
290 294 296 294 295 294 292 295 292 295 292 302 308 307 307 304 304 306 310 312 317 320 323 337 341 342 342 343 345 345 347 347
290 290 294 292 293 295 294 294 291 293 294 299 303 303 304 305 304 304 305 306 308 309 314 319 326 336 342 343 344 346 346 344
293 293 293 293 292 293 293 293 292 293 294 298 302 303 303 305 306 305 303 304 305 305 308 310 314 323 334 340 341 345 347 347
290 292 292 291 292 292 292 293 293 294 294 300 302 304 304 304 304 304 304 304 304 304 306 307 310 315 325 334 339 342 342 346
287 290 290 287 291 292 293 296 295 293 296 300 300 300 301 302 304 303 303 304 305 304 304 306 308 310 320 331 339 341 342 342
288 288 281 290 295 294 295 295 297 298 297 297 298 299 301 304 303 303 303 303 305 306 306 307 307 309 315 325 330 336 344 342
287 285 287 290 292 292 292 291 294 294 296 297 298 300 302 303 303 302 303 304 305 307 309 310 310 309 309 316 324 328 337 344
289 284 282 291 293 296 296 289 294 295 295 295 296 294 299 302 302 302 303 304 305 307 310 310 311 310 309 311 317 323 329 339
289 287 290 295 295 298 288 290 295 295 295 295 293 295 298 301 301 303 303 304 306 307 309 310 311 311 309 309 310 319 326 338
287 284 283 297 294 291 294 296 296 296 296 295 297 298 299 300 301 302 302 303 305 307 308 310 311 311 311 310 311 317 323 333
290 291 295 298 297 299 298 296 297 297 296 297 297 297 299 299 300 301 302 303 305 305 308 309 311 311 311 313 314 314 322 330
289 294 294 297 299 299 300 298 299 299 298 298 298 298 298 299 298 299 299 300 302 304 305 306 309 310 311 312 315 313 316 325
292 295 295 297 299 300 300 301 300 301 301 301 299 298 299 299 298 298 298 298 299 301 303 305 308 308 310 310 312 314 312 320
293 298 298 297 300 301 300 300 302 302 302 303 302 301 300 299 299 298 299 300 300 301 302 303 305 306 308 311 312 314 313 316
298 300 300 301 302 303 301 302 303 303 304 302 303 303 302 301 302 302 300 301 300 300 301 301 302 304 307 309 310 313 314 317
Wind_Speed
11 4 3 7 9 1 5 2 8 4 3 6 15 18 19 19 13 5 14 18 20 20 20 20 19 19 18 17 16 17 18 14
5 3 11 2 4 8 3 8 9 4 4 6 16 18 19 20 20 10 8 13 15 17 17 17 18 18 18 18 18 19 18 16
1 8 6 2 4 2 1 3 5 8 6 7 10 12 14 17 18 19 12 5 9 10 12 14 15 16 17 16 16 16 16 15
5 2 4 8 4 2 7 7 2 2 7 8 10 12 13 16 18 19 19 18 14 3 3 10 11 12 14 15 15 15 14 14
4 5 2 4 6 4 2 1 2 6 7 9 11 14 15 16 16 16 19 21 18 18 16 13 3 5 10 13 14 12 11 12
1 5 3 3 5 7 4 2 7 4 12 8 11 12 13 14 15 15 15 16 16 17 15 13 13 13 9 6 10 12 14 13
7 5 2 3 1 4 5 4 3 10 9 6 8 9 9 10 12 15 15 17 16 15 14 13 14 14 13 11 8 11 13 15
3 4 3 3 4 2 0 1 3 5 7 3 5 4 7 10 11 13 15 16 15 15 15 14 13 13 14 14 12 10 12 16
4 3 2 6 1 2 4 5 3 5 6 6 5 9 10 10 8 12 14 16 16 14 14 14 14 13 13 13 13 12 10 12
5 4 5 6 3 2 4 7 5 4 6 7 8 12 14 5 6 11 16 16 16 15 15 14 14 13 13 13 12 11 9 7
4 5 2 3 1 2 1 5 5 4 8 8 12 12 2 6 11 15 16 16 14 14 16 17 15 14 14 14 12 11 11 10
4 4 6 6 5 1 2 5 3 3 6 10 11 6 3 10 21 21 19 17 17 17 16 15 15 15 13 13 13 12 11 13
3 3 1 6 4 4 4 6 2 2 4 6 6 7 16 19 18 16 17 19 19 18 15 14 14 15 14 14 13 13 15 11
2 3 6 10 6 5 5 5 3 1 3 5 9 13 16 17 17 17 18 18 17 17 18 15 14 14 15 15 15 15 15 14
6 3 2 8 2 4 4 4 2 1 4 7 9 13 16 16 18 17 18 16 15 16 16 18 14 13 16 16 14 17 17 16
2 7 11 9 7 4 6 5 5 4 5 7 8 13 17 15 16 17 17 17 18 18 18 17 17 16 17 17 16 14 18 17
6 7 4 9 11 8 10 8 8 9 9 9 9 12 13 14 15 15 13 13 15 17 18 19 17 19 18 19 18 17 14 16
6 7 3 4 9 11 11 11 10 8 8 9 10 11 12 12 10 11 14 13 14 16 16 18 19 20 20 18 17 17 16 13
3 7 5 5 8 9 9 9 8 8 8 9 9 10 12 14 14 15 13 15 15 15 14 15 17 18 17 19 16 15 15 12
Wind_Direction
53 28 292 153 203 328 118 67 205 144 110 179 11 15 16 12 13 263 210 207 206 197 198 195 196 199 196 198 203 201 205 202
17 307 57 313 103 180 218 176 183 116 92 31 5 3 6 14 11 359 226 211 204 195 200 197 199 198 200 202 202 203 204 205
106 36 357 156 132 67 136 314 182 159 106 21 29 25 21 19 22 29 37 186 209 201 204 198 198 199 202 206 208 209 207 209
92 84 336 48 56 334 235 173 56 11 104 42 57 54 43 36 32 32 43 45 42 20 164 193 205 209 208 210 209 212 210 207
168 188 158 51 34 63 94 331 150 207 128 69 68 57 47 43 33 31 34 36 36 40 30 25 0 223 218 216 216 214 207 207
78 68 78 110 40 34 6 202 140 59 126 74 64 55 49 45 45 35 31 30 26 25 22 13 11 11 7 284 248 225 212 209
76 78 95 128 56 28 45 96 304 136 122 68 61 64 50 47 43 42 26 21 16 12 9 8 2 360 359 1 348 276 241 229
84 25 2 278 326 282 237 167 153 147 122 0 47 43 36 27 24 32 24 17 7 358 360 360 353 342 343 345 343 327 271 246
141 12 314 250 359 49 105 59 338 196 64 11 350 351 349 346 1 12 7 1 358 352 344 345 341 337 331 328 326 328 300 259
135 147 217 68 47 359 86 77 34 81 48 19 346 323 306 329 19 3 350 348 343 340 336 334 330 329 327 325 327 324 340 306
190 201 80 228 59 23 316 103 34 7 355 354 344 309 99 100 6 344 336 330 328 327 326 323 324 327 326 326 326 336 329 340
184 217 208 92 122 121 174 214 76 25 360 347 346 310 36 337 332 326 325 323 320 322 318 321 326 324 322 319 321 318 324 323
189 254 195 145 119 160 225 84 118 347 345 340 322 307 302 303 304 308 311 315 317 313 315 318 321 320 313 311 308 309 311 297
146 215 248 159 146 219 84 137 148 234 332 316 313 314 312 309 308 311 312 311 307 305 311 317 320 317 310 305 305 303 304 298
217 227 115 168 156 111 144 143 147 263 303 303 310 323 320 315 313 313 312 311 306 302 302 307 313 317 310 310 309 305 300 293
228 195 220 211 218 212 190 183 188 230 269 289 301 323 318 321 319 315 315 310 307 301 293 295 301 305 305 307 305 292 291 286
244 244 206 229 211 203 202 199 217 245 267 279 282 299 319 320 316 311 308 302 300 295 293 290 295 297 301 303 301 289 278 277
224 192 180 149 180 192 194 205 224 243 259 259 264 286 299 300 296 294 301 300 294 292 292 295 297 297 296 296 296 287 277 267
208 183 180 142 174 188 209 224 238 246 258 268 270 275 293 299 304 300 294 299 301 290 290 292 289 288 290 291 291 291 270 269